Flag for U.S.A. Weather past 2 weeks in Cedar Rapids, Iowa, U.S.A.

Now
84 °F

Sunny.


Feels Like: 92 °F
Forecast: 66 / 89 °F
Wind: 8 mph from Southwest

Location: Cedar Rapids Municipal Airport

Current Time: Sep 3, 2015 at 1:08:26 PM

Latest Report: Sep 3, 2015 at 11:52 AM


Visibility: 10 mi

Pressure: 29.91 "Hg

Humidity: 74%

Dew point: 75 °F

Location of Cedar RapidsLocation

Historic Weather in Cedar Rapids — Graph

°F

Cedar Rapids temperature yesterday

Maximum temperature yesterday: 83 °F (at 3:52 PM)
Minimum temperature yesterday: 69 °F (at 4:52 AM)
Average temperature yesterday: 74 °F

Past Weeks' High & Low Weather Summary

 TemperatureHumidityPressure
High87 °F (Sep 1, 2:52 PM)100% (Aug 19, 4:52 PM)30.20 "Hg (Aug 19, 4:52 PM)
Low47 °F (Aug 26, 6:52 AM)45% (Aug 20, 1:52 PM)29.69 "Hg (Aug 19, 11:52 AM)
Average66 °F85%29.99 "Hg
* Reported Aug 19 11:52 AM — Sep 3 11:52 AM, Cedar Rapids, Weather by CustomWeather, © 2015

Note: Actual official high and low records may vary slightly from our data, if they occured in-between our weather recording intervals... More about our weather records

Advertising

Cedar Rapids weather history for previous 24 hours

 ConditionsComfort  
Time TempWeatherWind HumidityBarometerVisibility
11:52 AM
Thu, Sep 3
84 °FSunny.8 mph74%29.91 "Hg10 mi
10:52 AM83 °FSunny.8 mph74%29.92 "Hg10 mi
9:52 AM80 °FWarm.9 mph79%29.92 "Hg10 mi
8:52 AM77 °FSunny.7 mph88%29.92 "Hg9 mi
7:52 AM72 °FPassing clouds.7 mph97%29.93 "Hg7 mi
6:52 AM69 °FFog.5 mph100%29.92 "Hg5 mi
5:52 AM69 °FPassing clouds.5 mph100%29.91 "Hg7 mi
4:52 AM70 °FPassing clouds.3 mph97%29.91 "Hg8 mi
3:52 AM71 °FClear.6 mph96%29.90 "Hg8 mi
2:52 AM72 °FClear.7 mph93%29.90 "Hg9 mi
1:52 AM71 °FClear.7 mph96%29.91 "Hg8 mi
12:52 AM72 °FClear.7 mph93%29.91 "Hg8 mi
11:52 PM
Wed, Sep 2
71 °FClear.6 mph100%29.92 "Hg7 mi
10:52 PM72 °FClear.6 mph97%29.93 "Hg7 mi
9:52 PM72 °FClear.5 mph97%29.92 "Hg7 mi
8:52 PM73 °FClear.6 mph94%29.91 "Hg8 mi
7:52 PM75 °FSunny.6 mph88%29.90 "Hg8 mi
6:52 PM79 °FSunny.8 mph77%29.91 "Hg9 mi
5:52 PM81 °FSunny.8 mph72%29.90 "Hg9 mi
4:52 PM82 °FSunny.13 mph72%29.91 "Hg9 mi
3:52 PM83 °FPassing clouds.14 mph68%29.92 "Hg10 mi
2:52 PM82 °FPassing clouds.12 mph72%29.94 "Hg10 mi
1:52 PM81 °FPartly sunny.10 mph77%29.95 "Hg9 mi
Weather by CustomWeather, © 2015

See weather overviewHow to use our weather pages